• In Deutschland
  • Länderverzeichnis
  • Für 7 Tage
  • Wassertemperatur
  • Satellitenkarten
  • Wetterkarte
  • Widgets
  • user-avatar
    Anmelden

    Stündliche Wetter Itzehoe

    Heute, 23 Oktober, Montag

    Zeit Temperatur Niederschläge Wind Luftdruck Luftfeuchtigkeit
    00:00 +8°C° 0 mm 4 m/S 756 mmHg 95%
    01:00 +7°C° 0 mm 4 m/S 756 mmHg 95%
    02:00 +8°C° 0 mm 4 m/S 756 mmHg 95%
    03:00 +8°C° 0 mm 4 m/S 756 mmHg 95%
    04:00 +8°C° 0 mm 4 m/S 756 mmHg 95%
    05:00 +10°C° 0,9 mm 4 m/S 756 mmHg 95%
    06:00 +10°C° 0,9 mm 4 m/S 756 mmHg 95%
    07:00 +10°C° 0,9 mm 4 m/S 757 mmHg 95%
    08:00 +9°C° 2,2 mm 5 m/S 757 mmHg 94%
    09:00 +9°C° 2,2 mm 5 m/S 757 mmHg 93%
    10:00 +10°C° 2,2 mm 5 m/S 757 mmHg 93%
    11:00 +11°C° 0,5 mm 4 m/S 758 mmHg 92%
    12:00 +11°C° 0,5 mm 4 m/S 758 mmHg 92%
    13:00 +11°C° 0,5 mm 3 m/S 758 mmHg 92%
    14:00 +11°C° 0,1 mm 3 m/S 759 mmHg 92%
    15:00 +12°C° 0,1 mm 3 m/S 759 mmHg 92%
    16:00 +12°C° 0,1 mm 3 m/S 759 mmHg 92%
    17:00 +11°C° 0 mm 3 m/S 760 mmHg 93%
    18:00 +10°C° 0 mm 3 m/S 761 mmHg 94%
    19:00 +9°C° 0 mm 2 m/S 761 mmHg 95%
    20:00 +9°C° 0 mm 2 m/S 762 mmHg 95%
    21:00 +9°C° 0 mm 2 m/S 762 mmHg 95%
    22:00 +10°C° 0 mm 1 m/S 763 mmHg 95%
    23:00 +10°C° 0 mm 1 m/S 763 mmHg 95%

    Morgen, 24 Oktober, Dienstag

    Zeit Temperatur Niederschläge Wind Luftdruck Luftfeuchtigkeit
    00:00 +10°C° 0 mm 1 m/S 763 mmHg 95%
    01:00 +10°C° 0 mm 1 m/S 763 mmHg 95%
    02:00 +10°C° 0 mm 1 m/S 763 mmHg 96%
    03:00 +10°C° 0 mm 1 m/S 763 mmHg 96%
    04:00 +8°C° 0 mm 2 m/S 763 mmHg 96%
    05:00 +9°C° 0 mm 2 m/S 763 mmHg 96%
    06:00 +9°C° 0 mm 2 m/S 763 mmHg 96%
    07:00 +9°C° 0 mm 3 m/S 763 mmHg 96%
    08:00 +10°C° 0 mm 3 m/S 763 mmHg 95%
    09:00 +10°C° 0 mm 3 m/S 764 mmHg 94%
    10:00 +11°C° 0 mm 4 m/S 764 mmHg 93%
    11:00 +11°C° 0 mm 4 m/S 764 mmHg 93%
    12:00 +12°C° 0 mm 4 m/S 763 mmHg 92%
    13:00 +13°C° 0 mm 4 m/S 763 mmHg 92%
    14:00 +13°C° 0 mm 4 m/S 763 mmHg 93%
    15:00 +13°C° 0 mm 4 m/S 763 mmHg 93%
    16:00 +13°C° 0 mm 4 m/S 763 mmHg 93%
    17:00 +13°C° 0,1 mm 4 m/S 762 mmHg 94%
    18:00 +13°C° 0,1 mm 5 m/S 762 mmHg 95%
    19:00 +13°C° 0,1 mm 5 m/S 762 mmHg 96%
    20:00 +13°C° 0,1 mm 5 m/S 762 mmHg 95%
    21:00 +14°C° 0,1 mm 5 m/S 762 mmHg 95%
    22:00 +14°C° 0,1 mm 6 m/S 761 mmHg 95%
    23:00 +14°C° 0,4 mm 6 m/S 761 mmHg 94%

    übermorgen, 25 Oktober, Mittwoch

    Zeit Temperatur Niederschläge Wind Luftdruck Luftfeuchtigkeit
    00:00 +15°C° 0,4 mm 7 m/S 761 mmHg 94%
    01:00 +15°C° 0,4 mm 7 m/S 761 mmHg 93%
    02:00 +15°C° 0,1 mm 7 m/S 760 mmHg 93%
    03:00 +15°C° 0,1 mm 7 m/S 760 mmHg 92%
    04:00 +15°C° 0,1 mm 7 m/S 760 mmHg 91%
    05:00 +14°C° 0 mm 7 m/S 760 mmHg 90%
    06:00 +14°C° 0 mm 7 m/S 760 mmHg 90%
    07:00 +14°C° 0 mm 7 m/S 760 mmHg 90%
    08:00 +14°C° 0,1 mm 7 m/S 760 mmHg 90%
    09:00 +13°C° 0,1 mm 8 m/S 761 mmHg 90%
    10:00 +13°C° 0,1 mm 8 m/S 761 mmHg 90%
    11:00 +14°C° 0,3 mm 7 m/S 761 mmHg 90%
    12:00 +14°C° 0,3 mm 6 m/S 762 mmHg 91%
    13:00 +14°C° 0,3 mm 6 m/S 762 mmHg 91%
    14:00 +14°C° 0,1 mm 5 m/S 762 mmHg 91%
    15:00 +14°C° 0,1 mm 5 m/S 763 mmHg 91%
    16:00 +14°C° 0,1 mm 4 m/S 763 mmHg 90%
    17:00 +13°C° 0 mm 4 m/S 763 mmHg 92%
    18:00 +13°C° 0 mm 3 m/S 764 mmHg 94%
    19:00 +12°C° 0 mm 3 m/S 764 mmHg 96%
    20:00 +12°C° 0 mm 3 m/S 764 mmHg 95%
    21:00 +11°C° 0 mm 3 m/S 764 mmHg 95%
    22:00 +11°C° 0 mm 3 m/S 764 mmHg 95%
    23:00 +11°C° 0 mm 3 m/S 765 mmHg 95%

    26 Oktober, Donnerstag

    Zeit Temperatur Niederschläge Wind Luftdruck Luftfeuchtigkeit
    00:00 +11°C° 0 mm 3 m/S 765 mmHg 96%
    01:00 +11°C° 0 mm 3 m/S 765 mmHg 96%
    02:00 +11°C° 0 mm 4 m/S 764 mmHg 96%
    03:00 +11°C° 0 mm 4 m/S 764 mmHg 96%
    04:00 +11°C° 0 mm 4 m/S 764 mmHg 96%
    05:00 +11°C° 0 mm 4 m/S 764 mmHg 96%
    06:00 +12°C° 0 mm 4 m/S 764 mmHg 96%
    07:00 +12°C° 0 mm 4 m/S 764 mmHg 96%
    08:00 +13°C° 0 mm 4 m/S 764 mmHg 93%
    09:00 +13°C° 0 mm 5 m/S 764 mmHg 90%
    10:00 +14°C° 0 mm 5 m/S 764 mmHg 88%
    11:00 +14°C° 0 mm 5 m/S 764 mmHg 84%
    12:00 +14°C° 0 mm 5 m/S 764 mmHg 80%
    13:00 +15°C° 0 mm 6 m/S 764 mmHg 76%
    14:00 +14°C° 0 mm 5 m/S 764 mmHg 78%
    15:00 +14°C° 0 mm 5 m/S 764 mmHg 81%
    16:00 +13°C° 0 mm 4 m/S 763 mmHg 83%
    17:00 +12°C° 0 mm 4 m/S 763 mmHg 86%
    18:00 +12°C° 0 mm 4 m/S 763 mmHg 89%
    19:00 +11°C° 0 mm 4 m/S 763 mmHg 92%
    20:00 +11°C° 0 mm 4 m/S 763 mmHg 91%
    21:00 +10°C° 0 mm 5 m/S 763 mmHg 89%
    22:00 +10°C° 0 mm 5 m/S 762 mmHg 88%
    23:00 +10°C° 0 mm 5 m/S 762 mmHg 87%

    27 Oktober, Freitag

    Zeit Temperatur Niederschläge Wind Luftdruck Luftfeuchtigkeit
    00:00 +10°C° 0 mm 5 m/S 762 mmHg 85%
    01:00 +10°C° 0 mm 5 m/S 761 mmHg 84%
    02:00 +10°C° 0 mm 6 m/S 761 mmHg 83%
    03:00 +10°C° 0 mm 6 m/S 761 mmHg 82%
    04:00 +10°C° 0 mm 6 m/S 760 mmHg 81%
    05:00 +10°C° 0 mm 6 m/S 760 mmHg 81%
    06:00 +10°C° 0 mm 6 m/S 760 mmHg 80%
    07:00 +10°C° 0 mm 6 m/S 759 mmHg 80%
    08:00 +10°C° 0,1 mm 7 m/S 759 mmHg 78%
    09:00 +11°C° 0,1 mm 8 m/S 759 mmHg 76%
    10:00 +11°C° 0,1 mm 8 m/S 760 mmHg 74%
    11:00 +12°C° 0,1 mm 8 m/S 760 mmHg 72%
    12:00 +12°C° 0,1 mm 8 m/S 760 mmHg 70%
    13:00 +12°C° 0,1 mm 9 m/S 760 mmHg 69%
    14:00 +12°C° 0 mm 8 m/S 760 mmHg 70%
    15:00 +11°C° 0 mm 8 m/S 760 mmHg 71%
    16:00 +11°C° 0 mm 7 m/S 760 mmHg 72%
    17:00 +10°C° 0 mm 7 m/S 760 mmHg 73%
    18:00 +10°C° 0 mm 6 m/S 759 mmHg 74%
    19:00 +9°C° 0 mm 5 m/S 759 mmHg 75%
    20:00 +9°C° 0,5 mm 6 m/S 759 mmHg 78%
    21:00 +9°C° 0,5 mm 7 m/S 758 mmHg 80%
    22:00 +9°C° 0,5 mm 8 m/S 758 mmHg 83%
    23:00 +9°C° 0,8 mm 8 m/S 757 mmHg 84%

    28 Oktober, Samstag

    Zeit Temperatur Niederschläge Wind Luftdruck Luftfeuchtigkeit
    00:00 +9°C° 0,8 mm 8 m/S 756 mmHg 84%
    01:00 +9°C° 0,8 mm 8 m/S 755 mmHg 85%
    02:00 +9°C° 0,6 mm 8 m/S 754 mmHg 85%
    03:00 +9°C° 0,6 mm 8 m/S 753 mmHg 85%
    04:00 +10°C° 0,6 mm 8 m/S 752 mmHg 85%
    05:00 +10°C° 0,2 mm 8 m/S 752 mmHg 83%
    06:00 +9°C° 0,2 mm 8 m/S 752 mmHg 82%
    07:00 +8°C° 0,2 mm 9 m/S 751 mmHg 81%
    08:00 +9°C° 0,2 mm 8 m/S 752 mmHg 80%
    09:00 +9°C° 0,2 mm 8 m/S 752 mmHg 78%
    10:00 +9°C° 0,2 mm 8 m/S 752 mmHg 77%
    11:00 +10°C° 0,1 mm 8 m/S 753 mmHg 73%
    12:00 +11°C° 0,1 mm 9 m/S 753 mmHg 69%
    13:00 +12°C° 0,1 mm 9 m/S 754 mmHg 65%
    14:00 +11°C° 0 mm 8 m/S 755 mmHg 66%
    15:00 +11°C° 0 mm 7 m/S 755 mmHg 68%
    16:00 +11°C° 0 mm 6 m/S 756 mmHg 69%
    17:00 +10°C° 0 mm 6 m/S 757 mmHg 72%
    18:00 +9°C° 0 mm 5 m/S 758 mmHg 74%
    19:00 +9°C° 0 mm 5 m/S 758 mmHg 77%
    20:00 +8°C° 0 mm 5 m/S 759 mmHg 80%
    21:00 +8°C° 0 mm 4 m/S 759 mmHg 83%
    22:00 +8°C° 0 mm 4 m/S 760 mmHg 86%
    23:00 +8°C° 0 mm 4 m/S 760 mmHg 87%

    29 Oktober, Sonntag

    Zeit Temperatur Niederschläge Wind Luftdruck Luftfeuchtigkeit
    00:00 +8°C° 0 mm 4 m/S 760 mmHg 87%
    01:00 +8°C° 0 mm 4 m/S 760 mmHg 88%
    02:00 +8°C° 0 mm 4 m/S 760 mmHg 89%
    03:00 +8°C° 0 mm 4 m/S 760 mmHg 90%
    04:00 +8°C° 0 mm 4 m/S 759 mmHg 91%
    05:00 +9°C° 0,1 mm 5 m/S 759 mmHg 89%
    06:00 +9°C° 0,1 mm 5 m/S 759 mmHg 87%
    07:00 +10°C° 0,1 mm 6 m/S 758 mmHg 85%
    08:00 +10°C° 0,1 mm 6 m/S 758 mmHg 85%
    09:00 +10°C° 0,1 mm 6 m/S 758 mmHg 85%
    10:00 +11°C° 0,1 mm 6 m/S 758 mmHg 85%
    11:00 +11°C° 0,1 mm 7 m/S 757 mmHg 82%
    12:00 +11°C° 0,1 mm 8 m/S 757 mmHg 79%
    13:00 +11°C° 0,1 mm 8 m/S 757 mmHg 76%
    14:00 +11°C° 0 mm 8 m/S 756 mmHg 75%
    15:00 +11°C° 0 mm 8 m/S 756 mmHg 75%
    16:00 +11°C° 0 mm 8 m/S 755 mmHg 74%
    17:00 +11°C° 0,1 mm 8 m/S 755 mmHg 75%
    18:00 +11°C° 0,1 mm 8 m/S 755 mmHg 76%
    19:00 +11°C° 0,1 mm 8 m/S 755 mmHg 76%
    20:00 +10°C° 0,1 mm 9 m/S 755 mmHg 73%
    21:00 +10°C° 0,1 mm 9 m/S 755 mmHg 70%
    22:00 +8°C° 0,1 mm 9 m/S 755 mmHg 67%
    23:00 +8°C° 0,1 mm 9 m/S 755 mmHg 67%
    Mehr zeigen